Theta_e
298 298 298 297 296 295 296 295 295 295 296 297 298 297 297 299 300 299 299 300 299 300 306 311 312 312 314 319 323 326 326 325 324 324 329 329 328 325
297 297 297 296 296 295 295 295 294 294 294 295 295 295 296 296 297 299 299 299 298 300 303 305 307 309 310 313 318 322 323 324 324 324 324 326 330 328
296 296 295 294 293 293 293 293 293 294 293 294 295 295 295 295 294 295 297 298 300 300 302 303 306 308 309 310 311 314 321 322 323 324 324 324 329 331
295 294 293 292 291 291 292 292 292 292 292 293 293 294 294 294 294 294 295 295 298 297 296 299 304 306 308 308 310 313 316 319 323 322 323 324 327 330
294 293 293 292 290 290 290 291 291 291 291 291 292 293 293 294 294 295 295 295 295 295 295 295 297 300 303 305 309 310 312 316 322 323 323 324 324 326
293 293 292 292 290 290 289 290 290 291 291 291 291 291 292 294 293 294 294 294 294 295 295 295 295 297 298 299 307 309 310 313 316 321 323 324 324 324
293 292 292 292 292 292 290 290 290 290 290 290 290 291 291 292 292 293 293 293 294 294 295 295 295 295 297 299 305 309 309 310 312 314 320 323 324 324
292 292 292 292 292 292 292 292 290 289 289 289 289 289 290 291 292 292 292 292 292 294 294 294 294 294 297 299 308 308 309 310 311 313 315 320 323 324
291 291 291 291 291 291 291 291 291 290 288 287 288 289 290 290 291 291 291 292 293 296 293 294 295 295 298 304 308 308 308 308 309 311 314 318 322 324
290 290 290 290 290 290 291 291 291 290 289 289 287 288 290 290 291 291 291 292 294 296 293 292 296 296 300 304 306 308 307 306 308 306 310 317 321 322
290 290 289 290 289 290 290 290 290 290 290 290 290 289 289 289 290 291 291 292 292 295 295 294 297 297 299 304 306 307 306 305 306 306 306 307 311 317
290 291 290 290 289 289 289 289 289 290 290 290 290 289 289 289 290 291 291 290 291 292 296 294 295 296 298 300 303 306 305 305 305 305 305 306 305 308
290 290 289 288 288 287 287 288 289 290 290 290 290 289 289 289 290 290 292 291 291 293 296 294 294 295 295 297 301 304 304 305 305 304 304 305 305 305
289 289 288 288 287 287 287 287 287 289 289 289 290 289 289 288 289 289 290 292 293 293 295 295 295 296 296 297 300 301 302 302 303 303 303 302 304 303
289 289 288 288 288 287 287 287 286 286 286 287 287 287 288 288 288 289 290 291 292 293 294 294 294 296 297 297 297 298 299 301 300 301 301 302 302 302
289 288 288 287 287 287 287 286 286 285 284 283 284 285 287 287 287 288 289 289 290 291 292 293 294 294 295 297 296 297 298 298 300 300 300 301 301 302
288 287 288 287 287 287 286 285 285 285 285 284 284 284 285 286 288 288 288 289 289 289 290 292 293 294 294 294 296 296 297 298 299 299 300 301 302 303
287 287 287 286 285 285 285 284 284 285 285 285 284 283 283 285 286 288 287 288 289 289 289 289 290 293 292 294 293 293 295 295 296 297 299 300 301 302
285 284 283 283 283 283 283 283 283 284 284 284 284 283 283 285 286 287 288 288 289 289 289 289 289 289 289 291 290 290 291 292 294 295 296 298 299 301
282 282 281 281 280 281 281 282 283 284 284 284 284 284 283 283 285 286 287 287 288 289 289 289 289 289 289 289 289 289 289 290 291 293 294 297 298 298
281 281 280 280 280 280 280 280 281 282 283 283 284 284 284 283 284 286 287 288 288 289 289 289 289 289 289 289 289 288 288 289 290 291 293 295 296 297
281 280 280 280 280 279 279 279 279 280 281 283 283 284 284 282 283 284 286 286 287 288 289 289 289 289 289 288 288 288 288 288 289 291 293 293 293 295
280 280 280 280 279 279 279 279 279 279 279 280 282 283 284 284 283 284 285 287 287 288 289 289 289 289 289 289 289 288 288 288 288 288 288 290 293 294
Wind_Speed
19 20 19 19 19 21 23 25 27 41 47 32 31 40 40 40 42 49 48 44 44 47 46 44 42 42 43 47 55 53 45 44 38 33 39 43 44 45
21 20 20 21 21 21 21 23 26 32 44 42 44 42 41 42 44 49 47 47 43 41 40 41 47 46 47 44 45 57 58 55 50 47 42 41 47 45
24 25 24 25 26 25 23 23 26 29 40 52 43 44 44 47 49 49 46 41 41 43 42 42 40 43 47 43 43 45 49 57 58 55 49 45 46 47
27 26 25 25 24 25 25 27 29 30 35 48 48 45 43 43 43 42 43 40 38 47 49 46 48 46 44 44 42 38 42 48 54 57 53 51 46 45
28 28 28 28 28 27 28 29 31 36 37 40 48 45 44 41 44 44 42 43 42 43 41 43 48 54 53 50 39 35 35 40 45 54 58 55 54 48
28 29 29 30 28 31 31 34 37 38 39 41 44 45 45 48 44 45 55 47 48 46 48 43 40 38 39 43 39 37 35 34 36 41 55 54 56 53
29 30 31 33 34 35 37 39 36 35 38 39 43 44 46 48 48 50 48 57 57 48 49 39 38 47 42 32 31 33 34 36 36 36 44 56 57 54
31 31 31 33 35 37 38 38 35 33 34 35 41 43 46 47 47 47 49 50 57 44 32 57 46 50 36 24 22 26 31 37 42 40 40 46 57 60
30 32 33 33 35 38 39 39 38 34 27 32 37 38 43 43 43 47 45 45 48 52 44 54 48 44 27 22 16 17 21 30 35 39 36 37 45 52
29 31 33 34 34 37 39 40 40 38 34 34 31 34 38 40 38 41 42 42 47 48 37 42 41 33 28 19 19 14 28 35 29 35 28 31 37 45
29 30 32 33 34 34 36 38 41 40 37 36 34 33 35 37 37 39 40 42 44 47 40 25 33 38 35 20 21 17 24 28 31 30 34 31 21 32
27 29 30 32 33 32 33 34 39 41 43 44 42 39 36 38 38 35 38 41 41 39 30 29 37 30 22 30 24 14 29 27 24 28 27 31 30 16
30 31 31 32 33 32 30 30 33 37 40 42 44 44 42 41 42 41 37 36 37 35 33 30 32 30 25 29 28 18 19 23 21 27 29 20 28 31
29 29 28 31 33 36 37 35 34 35 37 40 43 45 47 46 45 45 41 35 28 25 27 24 26 25 25 26 21 29 23 19 20 17 24 25 18 23
26 24 26 29 32 35 38 41 42 41 39 39 40 42 44 43 41 43 44 39 34 31 26 24 24 24 21 21 24 23 26 19 20 21 20 20 22 18
24 25 29 32 35 38 40 41 43 44 42 35 37 39 42 45 44 43 45 46 41 40 34 30 25 22 20 20 14 17 18 16 20 18 16 16 18 15
25 27 30 33 38 40 42 43 44 45 46 45 38 39 42 44 46 44 42 42 41 41 40 37 30 22 16 16 23 23 22 21 20 20 16 14 15 14
25 29 32 34 37 38 41 43 44 46 46 46 44 39 41 43 45 45 42 41 39 40 39 37 37 30 24 15 23 28 24 22 20 19 17 14 12 12
27 30 32 34 35 35 36 38 42 43 44 45 45 41 39 43 43 45 43 41 40 40 38 36 34 32 27 21 20 28 27 25 21 19 17 17 16 16
27 29 30 32 34 35 36 37 40 43 44 45 46 44 40 41 43 43 43 42 39 38 37 36 34 31 26 21 19 23 23 24 23 19 18 13 12 11
25 27 29 31 32 34 35 37 39 41 42 44 44 45 42 40 41 41 42 39 39 36 36 36 32 28 25 21 25 29 25 20 20 21 20 13 11 12
23 25 27 29 31 33 35 37 39 40 42 43 43 44 44 37 38 40 39 39 38 36 33 32 32 32 28 26 26 26 26 24 24 20 16 14 11 7
20 23 25 27 29 31 34 36 38 40 41 41 42 41 42 43 38 39 39 37 38 35 34 32 34 33 30 27 26 25 24 26 27 31 33 24 18 18
Wind_Direction
359 351 344 338 330 324 320 315 312 311 314 317 316 319 317 318 314 313 312 306 297 291 289 285 285 290 285 274 269 263 259 263 262 264 264 260 258 256
357 352 346 343 338 330 322 319 313 309 301 309 314 317 317 312 314 314 310 308 306 299 302 297 284 289 285 283 280 269 268 266 261 260 262 265 259 258
4 359 354 347 344 340 329 321 313 311 306 307 311 314 314 314 314 318 315 309 302 300 292 294 291 285 284 285 292 286 275 268 261 256 258 260 255 255
8 3 356 350 344 341 335 328 323 317 314 310 314 317 319 318 318 315 318 317 305 298 299 284 284 281 284 290 290 294 287 279 267 260 254 253 251 250
10 6 1 356 354 342 336 332 327 322 318 314 312 319 318 319 318 317 315 315 313 313 312 304 286 280 280 284 288 295 293 285 276 265 256 253 249 247
11 8 3 2 352 346 342 337 333 329 327 322 318 318 320 325 321 317 319 316 312 314 313 313 311 304 290 282 282 295 295 294 284 267 257 259 252 252
13 10 5 2 356 352 347 344 340 333 328 323 319 319 320 322 320 319 311 315 313 313 312 310 308 307 304 300 288 298 304 300 297 289 266 256 250 252
10 7 3 360 355 353 351 350 347 337 327 324 319 318 318 318 322 322 320 316 312 316 304 307 311 312 311 307 310 315 312 307 300 298 287 264 252 253
8 4 0 357 354 348 349 349 348 348 336 324 320 324 325 330 326 327 325 319 312 314 313 310 319 315 320 325 316 321 333 331 330 313 294 266 257 252
7 3 358 354 353 346 345 347 351 353 346 340 333 333 336 338 335 330 327 327 323 324 318 300 324 319 336 328 314 294 336 328 322 351 332 279 259 256
5 3 357 354 352 348 345 347 352 356 353 355 352 350 351 347 348 343 339 336 325 329 332 310 323 322 327 325 324 303 332 332 323 319 345 352 311 273
6 1 358 357 357 355 352 352 352 355 360 1 3 1 358 353 355 354 348 336 333 324 332 314 316 328 318 326 333 313 320 320 332 332 320 344 351 325
4 3 4 3 5 5 1 357 354 354 359 2 3 4 2 1 1 359 356 348 340 330 336 332 313 312 310 314 325 343 334 326 319 332 345 328 354 8
6 5 7 6 8 10 9 4 359 358 359 1 3 4 3 3 1 0 359 356 353 350 342 342 329 327 320 321 329 329 330 328 331 335 355 356 330 355
6 7 9 11 13 12 11 9 10 7 3 1 359 360 0 357 1 359 3 2 3 5 0 349 339 330 331 323 315 330 340 344 344 336 343 356 7 360
7 11 13 14 15 13 13 13 12 12 10 1 357 357 1 1 358 2 359 1 357 357 5 5 0 343 338 352 349 353 3 3 0 12 11 4 9 358
12 13 13 13 13 12 12 12 12 13 13 11 3 356 358 2 5 5 3 2 359 1 359 2 6 14 348 345 10 11 7 5 4 3 9 11 9 13
16 16 15 13 12 11 10 10 12 13 13 12 10 2 357 360 3 6 5 5 358 2 5 4 7 8 14 359 4 4 7 6 4 3 4 12 20 15
22 22 19 16 13 11 10 9 9 13 13 14 13 9 2 2 6 6 6 5 5 6 9 10 10 12 3 354 358 4 4 5 4 8 11 11 13 20
22 20 18 16 14 12 10 11 12 12 14 14 15 12 9 1 6 8 8 7 6 8 9 13 16 15 8 0 356 0 6 4 7 8 9 17 23 31
25 23 19 16 15 14 12 12 13 12 13 14 14 15 15 5 5 11 10 12 12 9 7 11 12 17 12 13 14 12 15 14 7 3 4 13 31 41
25 23 20 17 15 13 13 13 13 12 12 12 13 13 16 10 5 9 12 9 11 16 15 16 17 18 16 16 12 14 20 28 35 34 23 24 29 31
23 20 18 16 15 14 13 13 13 12 11 11 12 11 15 13 13 11 12 15 16 12 15 13 15 18 18 17 16 21 30 37 38 41 46 50 66 86